Find Starlink 4012

NORAD ID: 52602 Int'l Des: 2022-052 Owner: SPXS Country: US Constellation: starlink operational
LEOCIRCULAR

Live Position

Loading 3D Globe...

About Starlink 4012

Description loading...

Upcoming Passes

Passes for default location (London). Set your location on the main map for personalized predictions.

Altitude History

Loading altitude history...

Two-Line Element Set

1 52602U 22052E 26124.43731279 -.00000089 00000-0 12470-4 0 9993
2 52602 53.2166 28.8552 0001404 67.6721 292.4419 15.08832651220079
Epoch: May 4, 2026 • Age: 7 hours

Current Status

Altitude 547.4 km
Velocity 7.59 km/s
Sub-Earth Point -23.97°S, 97.43°E
Launch Date May 14, 2022
Age 3.9 years
Type internet

Technical Details

Classification Payload
Mass 297.00 kg
Dry Mass 275.00 kg
Total Mass 297.00 kg
Length 0.20 m
Diameter 2.80 m
Span 9.00 m
Shape Box + pan
Manufacturer SPXS
Bus Type Starlink
Phase Status In Orbit
Owner/State SPXS/US

Most Searched